Regional Weather Roundup
Issued by NWS

Home | Current Version | Previous Version | Graphics & Text | Print | Product List | Glossary On
Versions: 1 2 3 4 5 6 7 8 9 10 11 12 13 14 15 16 17 18 19 20 21 22 23 24 25 26 27 28 29 30 31 32 33 34 35 36 37 38 39 40 41 42 43 44 45 46 47 48 49 50
000
ASUS43 KOAX 182302
RWRNE

WEATHER ROUNDUP FOR NEBRASKA
NATIONAL WEATHER SERVICE OMAHA NE
500 PM CST SUN FEB 18 2018

NOTES: SATELLITE DATA IS BEING USED TO AUGMENT CLOUD COVER ABOVE
       12000 FEET.
       "FAIR" INDICATES FEW OR NO CLOUDS BELOW 12,000 FEET WITH NO
       SIGNIFICANT WEATHER AND/OR OBSTRUCTIONS TO VISIBILITY.


NEZ001>004-019>022-054>056-190000-
NEBRASKA PANHANDLE

CITY           SKY/WX    TMP DP  RH WIND       PRES   REMARKS
SCOTTSBLUFF    MOSUNNY   33  24  69 NE26G37   29.54R WCI  20
ALLIANCE       CLOUDY    24  20  84 N21       29.58R WCI   9
CHADRON        CLOUDY    18  12  77 NE25G35   29.71R WCI   0
GORDON         FLURRIES  19  15  81 N20G33    29.65R WCI   4
KIMBALL        MOSUNNY   44  28  53 NE22G30   29.46R
SIDNEY         MOSUNNY   47  29  49 NE30G41   29.46R
$$

NEZ057>060-069>072-079>082-190000-
SOUTHWEST NEBRASKA

CITY           SKY/WX    TMP DP  RH WIND       PRES   REMARKS
NORTH PLATTE   SUNNY     50  29  44 NE16      29.53R
IMPERIAL       SUNNY     57  34  41 E15       29.41S
LEXINGTON      SUNNY     53  38  56 N9        29.50R
MCCOOK         SUNNY     63  32  31 E8        29.42F
OGALLALA       MOSUNNY   49  30  47 NE25G31   29.49R
$$

NEZ005>010-023>029-035>040-094-190000-
NORTH CENTRAL NEBRASKA

CITY           SKY/WX    TMP DP  RH WIND       PRES   REMARKS
VALENTINE      CLOUDY    25  18  74 N20G31    29.65R WCI  11
AINSWORTH      CLOUDY    26  25  94 N21G30    29.65R WCI  12
BROKEN BOW     SUNNY     44  30  57 N16       29.54R
O`NEILL        MOSUNNY   33  27  79 N18G28    29.59S WCI  22
ORD            SUNNY     44  29  55 N15G25    29.55R
THEDFORD       CLOUDY    31  25  79 N15G23    29.63R WCI  20
$$

NEZ041-046>049-061>064-073>077-083>087-190000-
SOUTH CENTRAL NEBRASKA

CITY           SKY/WX    TMP DP  RH WIND       PRES   REMARKS
GRAND ISLAND   SUNNY     60  35  39 W5        29.51R
AURORA         SUNNY     61  34  36 SW8       29.50S
HASTINGS       SUNNY     63  33  32 SW7       29.48S
HEBRON         CLOUDY    60  41  48 S17G26    29.51F
HOLDREGE       SUNNY     64  33  31 SW5       29.46S
KEARNEY        SUNNY     61  33  35 SW5       29.48S
YORK           SUNNY     59  39  47 S12       29.52R
$$

NEZ011>018-030>034-042>045-190000-
NORTHEAST NEBRASKA

CITY           SKY/WX    TMP DP  RH WIND       PRES   REMARKS
NORFOLK        SUNNY     51  33  50 S7        29.54R
ALBION         SUNNY     53  33  47 W5        29.54S
BLAIR          CLOUDY    55  37  50 S15G24    29.57S
COLUMBUS       SUNNY     54  37  52 S5        29.54R
FREMONT        CLOUDY    54  37  51 S13       29.57R
TEKAMAH        CLEAR     50  40  68 S15       29.56F
WAYNE          SUNNY     48  32  54 W7        29.56R
$$

NEZ050>053-065>068-078-088>093-190000-
SOUTHEAST NEBRASKA

CITY           SKY/WX    TMP DP  RH WIND       PRES   REMARKS
LINCOLN        CLOUDY    57  39  51 S25G35    29.55F
OMAHA EPPLEY   CLOUDY    55  34  45 S17       29.59R
BEATRICE       CLOUDY    56  42  59 S20G32    29.56S
FALLS CITY     MOSUNNY   56  36  47 S24G41    29.63S
NEBRASKA CITY  MOSUNNY   54  37  53 S16       29.60S
PLATTSMOUTH    CLOUDY    54  38  54 S18G24    29.59S
$$

NEZ044-045-051>053-067-190000-
OMAHA AREA

CITY           SKY/WX    TMP DP  RH WIND       PRES   REMARKS
OMAHA EPPLEY   CLOUDY    55  34  45 S17       29.59R
BLAIR          CLOUDY    55  37  50 S15G24    29.57S
FREMONT        CLOUDY    54  37  51 S13       29.57R
MILLARD        CLOUDY    56  37  47 SE10      29.58S
OFFUTT AFB     CLOUDY    53  34  49 SE8       29.59S
PLATTSMOUTH    CLOUDY    54  38  54 S18G24    29.59S
WAHOO          FAIR      55  37  49 S13G20    29.56S
$$



USA.gov is the U.S. government's official web portal to all federal, state and local government web resources and services.